STARLINK-4779, 53864

Orbit data source: Space-Track

STARLINK-4779, 53864 is a payload satellite owned by SpaceX/Seattle (US) in LEO that was launched on Mon, 19 Sep 2022 UTC via an FALCON 9 launch vehicle from the Air Force Eastern Test Range (AFETR). Payload-class satellites include a variety of spacecraft equipped with specific instruments for various scientific and technological missions. These include communications satellites like Starlink; space stations such as the ISS; scientific satellites like the Hubble; Earth observation satellites from companies like Planet Labs, Umbra, and HawkEye 360; GPS; miniature CubeSats for education and research; and military/defense satellites.

Loading next visibility...
Identifier
53864, 2022-114AY
Orbit
LEO
Country
Flag of USUS
Related business
Manufacturer
SpaceX/Seattle
Mission
Operational Commercial Communications
Bus & Motor
STARLINK, Unknown motor
Mass
305 kg wet, ~290 kg dry
Launch date (UTC)
2022-09-19 (4 years ago)
Launch vehicle
FALCON 9
Launch site
Air Force Eastern Test Range (AFETR)
Object type
Payload
Rocket body
Debris
Shape & HBR
Box + 1 Pan, 10.1 m
Radar Cross Section
13.562 m², Large (>1 m²)

Expand to show TLE details & history
Last TLE update: 2 days ago

TLE from 2 days ago
0 STARLINK-4779
1 53864U 22114AY  26171.26668459 -.00000051  00000-0  14869-4 0  9998
2 53864  53.1584 183.0852 0001218  76.5728 283.5399 15.08830997208603
Epoch: 2026-06-20T06:24Z
TLE epoch observation values (Epoch: 2026-06-20T06:24:01.548Z)
Latitude
-0.00003°
Longitude
178.59496°
Altitude
540.465 km
Speed
7.593 km/s
True Right ascension
12h 12m 20s
True Declination
0° 00' 00"
Sunlit
Object was in daylight at epoch
Visualization orbit readout
Latitude
Unknown
Longitude
Unknown
Altitude
Unknown
Speed
Unknown
Apparent Right ascension
Unknown
Apparent Declination
Unknown
Sunlit
N/A
Visualization observer readout
Local Sidereal Time
21:27:05
Azimuth
Unknown
Elevation
Unknown
Doppler factor
Unknown
Orbital elements
Apogee altitude
540.868 km
Perigee altitude
539.183 km
Semi-major axis
6,918.162 km
Eccentricity
0.00012
Inclination
53.1584°
RAAN
183.0852°
Arg. of periapsis
76.5728°
True anomaly
283.52633°
Mean anomaly
283.5399°
Eccentric anomaly
283.53312°
Mean motion
3.77187 °/min
Orbital period
95.44 mins
BSTAR
0.000014869
Loading maneuver chart data...
Computing Atmospheric mass density...
Loading historical data...
Loading historical data...
Loading historical data...
Loading historical data...
Loading historical data...
Loading historical data...
Loading historical data...

Documentation

Showing up to 5 results
|